Curtin, Western Australia

8:09 PM AWST on July 30, 2016 (GMT +0800)
Curtin

Weather History for YCIN - April, 2014

Change the Weather History Date:

Monday, April 21, 2014

  Actual Average Record
Temperature  
Mean Temperature 82 °F -  
Max Temperature 98 °F - - ()
Min Temperature 65 °F - - ()
Cooling Degree Days 16    
Growing Degree Days 32 (Base 50)    
Moisture  
Dew Point 60 °F    
Average Humidity 54    
Maximum Humidity 94    
Minimum Humidity 15    
Precipitation  
Precipitation 0.00 in - - ()
Sea Level Pressure  
Sea Level Pressure 29.85 in    
Wind  
Wind Speed 4 mph ()    
Max Wind Speed 8 mph    
Max Gust Speed -    
T = Trace of Precipitation, MM = Missing Value Source: Averaged Metar Reports

Daily Weather History Graph

Daily Weather History Graph

Search for Another Location

Airport or City:

Trip Planner

Search our weather history database for the weather conditions in past years. The results will help you decide how hot, cold, wet, or windy it might be!

Date:

Astronomy

Apr. 21, 2014 Rise Set
Actual Time 5:55 AM AWST 5:31 PM AWST
Civil Twilight 5:32 AM AWST 5:53 PM AWST
Nautical Twilight 5:07 AM AWST 6:19 PM AWST
Astronomical Twilight 4:41 AM AWST 6:44 PM AWST
Moon 10:57 PM AWST (4/21) 11:13 AM AWST (4/21)
Length of Visible Light 12h 20m
Length of Day
11h 36m
Waning Gibbous, 63% of the Moon is Illuminated
Apr 21
Waning Gibbous
Apr 22
Last Quarter
Apr 29
New
May 7
First Quarter
May 15
Full

Hourly Weather History & Observations

Time (AWST) Temp. Heat Index Dew Point Humidity Pressure Visibility Wind Dir Wind Speed Gust Speed Precip Events Conditions
12:00 AM 68 °F - 66 °F 90% 29.84 in - SW 3.5 mph - -  
12:00 AM 68.0 °F - 66.2 °F 94% 29.83 in - SW 3.5 mph - N/A   Unknown
1:00 AM 69.8 °F - 68.0 °F 94% 29.83 in - SSW 4.6 mph - N/A   Unknown
2:00 AM 69.8 °F - 66.2 °F 88% 29.83 in - SSE 5.8 mph - N/A   Unknown
3:00 AM 71 °F - 66 °F 81% 29.82 in - SSE 6.9 mph - -  
3:00 AM 71.6 °F - 66.2 °F 83% 29.83 in - SSE 6.9 mph - N/A   Unknown
4:00 AM 69.8 °F - 64.4 °F 83% 29.83 in - South 5.8 mph - N/A   Unknown
5:00 AM 69.8 °F - 64.4 °F 83% 29.86 in - SE 5.8 mph - N/A   Unknown
6:00 AM 66 °F - 61 °F 80% 29.86 in - East 4.6 mph - -  
6:00 AM 66.2 °F - 60.8 °F 83% 29.86 in - East 4.6 mph - N/A   Unknown
7:00 AM 73.4 °F - 66.2 °F 78% 29.89 in - NNE 4.6 mph - N/A   Unknown
8:00 AM 82.4 °F 83.9 °F 64.4 °F 54% 29.89 in - North 3.5 mph - N/A   Unknown
9:00 AM 88 °F - 61 °F 30% 29.89 in - NNE 1.2 mph - -  
9:00 AM 87.8 °F 87.6 °F 60.8 °F 40% 29.89 in - NNE 1.2 mph - N/A   Unknown
10:00 AM 91.4 °F 90.7 °F 59.0 °F 34% 29.89 in - SSE 4.6 mph - N/A   Unknown
11:00 AM 95.0 °F 93.0 °F 55.4 °F 26% 29.86 in - NNE 8.1 mph - N/A   Unknown
12:00 PM 95 °F - 54 °F 16% 29.82 in - North 6.9 mph - -  
12:00 PM 95.0 °F 92.7 °F 53.6 °F 25% 29.83 in - North 6.9 mph - N/A   Unknown
1:00 PM 96.8 °F 95.1 °F 55.4 °F 25% 29.80 in - WSW 5.8 mph - N/A   Scattered Clouds
2:00 PM 96.8 °F 94.4 °F 53.6 °F 23% 29.80 in - North 5.8 mph - N/A   Scattered Clouds
3:00 PM 96 °F - 53 °F 15% 29.79 in - NNE 6.9 mph - -  
3:00 PM 96.8 °F 94.4 °F 53.6 °F 23% 29.80 in - NNE 6.9 mph - N/A   Overcast
4:00 PM 93.2 °F 91.9 °F 57.2 °F 30% 29.80 in - WNW 8.1 mph - N/A   Unknown
5:00 PM 89.6 °F 87.3 °F 53.6 °F 29% 29.80 in - NNW 5.8 mph - N/A   Scattered Clouds
6:00 PM 84 °F - 55 °F 27% 29.83 in - West 5.8 mph - -  
6:00 PM 84.2 °F 83.0 °F 55.4 °F 37% 29.83 in - West 5.8 mph - N/A   Scattered Clouds
7:00 PM 78.8 °F - 59.0 °F 51% 29.86 in - WNW 3.5 mph - N/A   Scattered Clouds
8:00 PM 73.4 °F - 59.0 °F 61% 29.89 in - West 3.5 mph - N/A   Unknown
9:00 PM 72 °F - 60 °F 57% 29.88 in - West 4.6 mph - -  
9:00 PM 71.6 °F - 60.8 °F 69% 29.89 in - West 4.6 mph - N/A   Unknown
10:00 PM 77.0 °F - 62.6 °F 61% 29.89 in - WNW 4.6 mph - N/A   Unknown
11:00 PM 71.6 °F - 62.6 °F 73% 29.89 in - WSW 4.6 mph - N/A   Unknown